Vorticity
nan nan nan nan nan nan nan nan nan nan nan nan nan nan nan nan nan nan nan nan nan nan nan nan nan nan nan nan nan nan nan nan nan nan nan nan nan nan nan nan nan nan nan nan nan nan nan nan nan nan nan nan nan nan nan nan nan nan nan nan nan nan nan nan nan nan nan nan nan
nan 3 2 4 6 6 7 6 7 9 10 9 10 10 8 7 8 8 8 7 6 7 8 10 12 12 13 12 10 11 11 11 9 7 8 9 9 9 8 9 10 9 8 7 5 5 9 10 5 4 6 10 13 12 9 9 12 12 12 5 4 10 13 13 13 14 11 7 nan
nan 4 3 4 4 4 4 6 9 9 7 6 7 9 8 7 8 9 9 9 8 6 6 9 13 14 13 10 8 10 11 12 10 7 6 8 10 9 7 8 10 8 6 7 6 5 8 9 5 5 6 9 10 9 8 10 11 12 14 8 3 7 10 13 15 13 10 11 nan
nan 4 5 7 6 2 -1 4 10 9 5 5 8 7 7 6 7 9 10 11 10 7 7 7 10 12 12 11 9 9 10 11 11 8 6 7 10 10 8 8 9 8 6 6 7 6 7 5 3 6 9 10 9 6 5 10 11 9 11 11 7 9 8 10 12 11 10 13 nan
nan 4 4 9 9 3 1 5 8 6 4 4 7 7 7 7 8 9 9 10 10 10 11 8 6 8 11 13 11 10 10 10 9 8 8 8 9 9 9 8 7 7 7 7 7 7 8 2 -0 6 10 10 9 9 10 9 8 6 6 8 9 10 9 9 10 10 10 11 nan
nan 6 4 7 8 3 3 8 9 4 3 5 6 5 3 5 8 8 7 8 10 12 12 9 6 8 10 12 11 11 11 10 9 9 9 8 7 9 10 9 7 5 6 8 9 8 7 1 -1 6 9 11 12 13 13 9 6 5 5 5 8 9 10 9 9 10 11 10 nan
nan 7 6 7 6 3 3 6 7 6 5 8 10 6 2 2 5 6 5 5 8 10 10 11 10 9 9 9 9 10 9 9 10 11 8 7 8 8 8 8 8 6 5 6 8 7 7 2 -1 5 8 9 13 17 15 9 6 5 5 4 6 9 12 9 7 11 14 13 nan
nan 9 7 7 7 6 5 3 3 4 4 8 13 11 7 5 5 5 4 4 6 7 7 10 12 9 7 6 7 8 9 8 8 9 9 9 10 8 8 9 9 9 7 6 6 6 4 3 3 6 7 7 10 16 17 11 6 5 5 3 4 8 10 10 9 10 14 13 nan
nan 11 9 8 8 8 8 5 3 3 4 7 10 11 9 9 8 6 4 5 7 7 6 10 13 10 7 5 6 7 8 9 9 8 8 10 10 9 8 10 10 10 9 8 9 8 3 1 4 6 6 8 10 13 17 15 8 5 2 4 6 7 8 9 10 10 11 11 nan
nan 10 9 9 9 9 9 7 6 6 5 7 8 8 8 9 10 7 4 6 9 8 7 9 12 11 9 7 6 6 7 9 11 10 9 9 10 9 7 8 10 9 8 7 10 11 6 3 5 5 4 8 11 12 14 15 11 6 -1 3 11 10 7 7 9 9 8 10 nan
nan 7 6 8 10 8 8 7 6 7 7 8 8 7 6 7 7 6 5 6 8 9 8 8 10 9 8 8 8 8 6 7 9 11 10 9 9 9 7 7 9 8 8 5 6 8 7 7 9 7 4 5 11 12 14 13 13 9 1 2 10 10 8 6 7 8 9 11 nan
nan 6 6 7 9 7 7 5 5 8 8 8 8 8 7 7 8 6 6 6 7 8 9 9 9 8 5 7 9 8 9 8 7 8 10 11 10 9 8 8 8 8 8 5 3 4 7 9 10 10 7 3 6 11 16 14 12 10 6 3 6 7 8 8 7 7 10 12 nan
nan 6 7 8 8 7 6 4 5 8 10 8 6 7 7 9 10 9 8 7 5 6 9 10 10 8 7 6 8 8 9 10 9 7 8 10 11 11 10 9 9 9 8 7 4 3 6 10 11 10 8 3 3 9 15 14 10 9 7 5 5 6 9 10 8 7 9 10 nan
nan 6 7 8 7 6 6 4 5 8 11 8 6 6 7 9 11 11 10 9 6 5 6 8 9 9 10 8 7 8 8 9 10 8 7 7 9 11 9 10 10 8 7 8 8 7 5 7 10 10 10 7 5 8 11 11 9 8 7 7 7 8 9 10 9 7 8 7 nan
nan 6 6 7 6 4 6 5 5 9 11 10 7 6 6 8 11 11 11 10 8 6 6 6 7 10 12 11 9 9 8 8 10 9 8 7 8 9 8 9 10 8 7 8 10 10 10 9 9 10 11 10 9 8 8 8 7 6 6 8 10 11 10 9 7 6 7 6 nan
nan 6 6 6 5 3 4 3 4 10 11 10 8 7 6 7 10 11 12 10 9 8 8 6 6 9 13 15 13 12 10 9 10 10 9 9 8 8 8 9 10 10 9 8 8 9 10 10 11 12 12 10 10 9 7 6 6 6 6 8 11 11 9 7 6 6 7 7 nan
nan 7 6 6 5 3 2 -1 1 6 9 9 8 6 6 6 8 11 13 10 7 8 9 7 5 7 10 12 14 13 12 11 10 10 10 10 10 10 10 10 11 11 11 10 9 8 8 8 9 12 11 10 9 9 9 7 7 8 8 8 8 8 7 6 7 7 8 9 nan
nan 8 7 7 6 5 4 1 -0 3 6 7 7 6 6 6 6 8 10 10 8 9 9 7 5 6 8 8 8 10 12 11 10 9 9 11 12 12 12 12 11 11 11 10 9 10 9 8 7 8 9 9 9 9 11 11 10 11 10 8 7 6 6 7 8 8 9 9 nan
nan 9 8 7 7 6 6 4 3 4 5 7 7 7 7 7 6 5 7 9 10 11 10 8 7 7 8 6 4 5 8 12 11 10 10 12 13 13 13 12 10 9 9 8 9 9 10 9 9 9 9 8 9 10 12 14 13 12 10 8 7 6 6 7 7 7 7 7 nan
nan 9 9 9 8 8 7 7 6 5 5 7 8 8 8 8 7 6 6 7 10 11 11 9 7 7 7 7 5 3 4 11 15 14 13 14 14 14 12 11 9 8 8 7 8 9 9 10 11 12 11 10 9 9 11 13 12 10 7 7 9 8 6 7 7 6 6 6 nan
nan 9 9 9 9 9 8 8 8 8 6 7 9 8 8 8 8 8 7 7 8 10 11 10 8 6 6 7 7 5 3 10 17 16 15 15 15 13 11 10 8 7 7 7 8 10 11 12 12 13 13 12 11 10 9 9 9 7 4 4 7 8 7 6 7 7 7 8 nan
nan 10 10 10 10 9 9 9 10 10 9 9 9 9 8 8 9 9 9 9 9 10 10 11 10 9 7 8 8 8 6 9 15 15 14 14 13 12 10 10 10 8 7 8 9 11 13 15 15 14 13 12 12 10 7 6 6 6 6 5 6 7 7 7 8 9 11 12 nan
nan 10 11 13 13 12 11 11 12 12 12 11 10 9 9 8 8 9 9 9 9 10 9 11 13 13 11 10 11 10 9 9 11 11 10 10 10 10 8 10 12 10 8 10 14 16 15 16 16 14 12 13 12 9 6 4 5 7 9 9 8 8 8 9 9 10 12 14 nan
nan 9 8 14 18 16 15 15 16 16 15 14 12 11 10 9 9 9 10 9 9 9 6 6 11 15 16 15 14 13 12 9 8 7 6 5 6 7 7 9 13 13 11 14 20 21 17 15 15 13 12 11 10 7 6 4 5 7 10 11 10 11 12 12 11 11 12 12 nan
nan 7 6 10 16 16 15 15 16 17 17 17 15 14 12 10 10 10 11 11 10 10 8 6 8 12 16 17 16 14 13 10 8 7 6 5 4 5 5 7 11 13 15 21 25 23 17 14 14 13 11 10 9 7 8 8 8 8 8 8 9 11 13 15 14 13 13 13 nan
nan 7 7 9 12 13 12 11 11 12 13 15 16 15 15 13 12 11 10 10 11 11 11 10 8 10 14 16 14 12 10 10 11 10 7 6 7 6 4 4 7 10 15 24 27 22 17 14 13 12 10 9 8 7 8 12 12 10 8 7 7 9 11 13 15 14 13 15 nan
nan 8 7 8 10 11 10 9 8 9 10 11 12 14 15 15 14 14 12 10 10 11 12 12 11 10 13 17 15 10 6 7 11 12 11 9 9 9 6 4 6 9 18 26 24 18 15 13 11 9 6 6 6 6 6 10 13 12 11 10 9 10 10 11 14 14 13 14 nan
nan 9 7 6 8 8 8 8 8 8 9 9 9 10 13 16 16 14 11 9 8 9 11 13 13 11 12 17 19 14 9 5 8 11 13 14 15 14 11 8 9 14 22 25 17 12 10 11 9 5 0 0 4 7 8 9 12 13 14 15 14 14 12 12 13 14 14 13 nan
nan 10 10 7 6 6 7 8 8 8 8 9 8 8 10 13 15 14 11 8 6 6 7 11 14 14 15 17 20 20 18 14 13 15 19 21 21 18 14 11 11 16 22 20 11 8 8 9 7 4 -2 -8 -6 2 7 10 11 13 13 14 15 14 13 12 11 12 13 12 nan
nan 10 11 10 8 6 7 8 9 8 7 9 10 8 7 9 12 12 11 9 7 6 7 11 14 17 18 19 20 23 24 22 21 23 24 24 19 15 11 10 11 14 19 16 9 8 8 8 6 3 -0 -10 -13 -6 2 8 9 10 11 13 14 13 12 12 11 9 8 9 nan
nan 12 11 11 10 9 8 8 9 9 8 10 12 10 8 8 10 10 11 11 10 10 14 17 18 18 18 20 21 23 22 20 18 18 17 15 12 11 9 9 9 12 19 17 10 8 8 6 5 4 2 -9 -15 -8 0 6 7 8 9 11 13 12 11 13 14 11 8 7 nan
nan 15 13 12 12 12 12 11 11 10 10 10 11 11 11 10 11 12 14 18 20 21 22 22 21 18 17 16 16 16 15 13 10 9 7 5 6 6 6 7 8 11 20 19 11 9 8 7 6 6 5 -7 -14 -6 0 5 8 9 11 13 13 12 9 8 12 13 12 10 nan
nan 14 13 13 13 12 14 14 13 12 11 11 13 15 17 17 19 21 22 25 28 28 24 20 17 14 12 9 8 7 6 5 5 4 3 3 4 4 4 4 8 14 23 21 13 10 9 9 9 9 9 -4 -12 -3 3 5 7 10 12 14 15 14 13 10 11 14 17 16 nan
nan 12 12 12 12 11 12 13 12 12 12 13 17 21 25 28 28 26 25 24 24 22 18 14 11 9 6 4 3 2 2 4 6 6 5 5 7 7 4 1 7 18 27 24 16 13 11 11 11 10 10 -0 -8 1 7 7 6 9 11 14 17 18 19 19 18 20 22 22 nan
nan 11 11 9 9 9 11 11 9 9 12 15 20 24 27 27 24 20 17 16 15 13 11 9 7 5 3 2 3 4 5 7 8 8 8 8 10 10 7 2 6 18 27 26 18 15 14 12 12 11 8 2 -1 5 10 10 9 12 14 16 18 21 23 24 23 22 23 23 nan
nan 11 10 8 7 9 11 11 9 7 11 16 19 20 19 18 15 12 10 9 9 8 7 6 5 3 1 2 4 7 10 10 7 7 9 10 10 10 9 6 8 17 26 26 19 16 14 13 13 12 7 2 3 8 11 12 13 17 18 17 15 16 17 18 17 16 17 19 nan
nan 12 11 9 9 12 15 16 15 12 13 16 17 15 13 11 8 7 5 4 5 5 5 4 3 2 2 5 5 6 10 10 7 8 9 10 11 12 11 11 12 17 24 26 21 18 15 14 15 13 8 4 7 10 12 12 14 17 15 11 10 10 11 10 9 11 14 18 nan
nan 12 14 13 14 17 20 23 22 19 15 14 13 11 9 6 5 4 1 1 4 4 4 3 3 4 6 6 6 8 10 13 15 17 18 18 18 18 18 16 15 16 22 27 26 22 19 18 18 15 9 7 10 11 11 12 13 12 10 7 7 9 10 10 10 11 14 20 nan
nan 11 15 17 19 20 21 21 20 17 13 11 10 9 7 5 3 3 1 3 5 4 4 5 4 5 7 9 10 14 18 23 27 30 32 30 28 27 27 23 16 16 21 28 30 27 24 23 20 14 8 8 10 10 10 12 12 10 8 7 7 8 9 11 11 11 11 13 nan
nan 13 16 19 19 19 17 15 13 11 10 10 9 7 5 3 3 4 3 5 7 7 7 7 7 9 13 17 18 19 20 21 25 29 32 31 29 28 28 24 16 16 20 26 30 29 27 24 18 11 6 7 10 9 10 11 10 9 9 8 7 7 7 9 9 9 7 4 nan
nan nan nan nan nan nan nan nan nan nan nan nan nan nan nan nan nan nan nan nan nan nan nan nan nan nan nan nan nan nan nan nan nan nan nan nan nan nan nan nan nan nan nan nan nan nan nan nan nan nan nan nan nan nan nan nan nan nan nan nan nan nan nan nan nan nan nan nan nan
CAPE
nan nan nan nan nan nan nan nan nan nan nan nan nan nan nan nan nan nan nan nan nan nan nan nan nan nan nan nan nan nan nan nan nan nan nan nan nan nan nan nan nan nan nan nan nan nan nan nan nan nan nan nan nan nan nan nan nan nan nan nan nan nan nan nan nan nan nan nan nan
nan nan nan nan nan nan nan nan nan nan nan nan nan nan nan nan nan nan nan nan nan nan nan nan nan nan nan nan nan nan nan nan nan nan nan nan nan nan nan nan nan nan nan nan nan nan nan nan nan nan nan nan nan nan nan nan nan nan nan nan nan nan nan nan nan nan nan nan nan
nan nan nan nan nan nan nan nan nan nan nan nan nan nan nan nan nan nan nan nan nan nan nan nan nan nan nan nan nan nan nan nan nan nan nan nan nan nan nan nan nan nan nan nan nan nan nan nan nan nan nan nan nan nan nan nan nan nan nan nan nan nan nan nan nan nan nan nan nan
nan nan nan nan nan nan 0 nan nan nan nan nan nan nan nan nan nan nan nan nan nan nan nan nan nan nan nan nan nan nan nan nan nan nan nan nan nan nan nan nan nan nan nan nan nan nan nan nan nan nan nan nan nan nan nan nan nan nan nan nan nan nan nan nan nan nan nan nan nan
nan nan nan 0 2 2 1 nan nan nan nan nan nan nan nan nan nan nan nan nan nan nan nan nan nan nan nan nan nan nan nan nan nan nan nan nan nan nan nan nan nan nan nan nan nan nan nan nan nan nan nan nan nan nan nan nan nan nan nan nan nan nan nan nan nan nan nan nan nan
0 1 1 5 5 5 3 0 nan nan nan nan nan nan nan nan nan nan nan nan nan nan nan nan nan nan nan nan nan nan nan nan nan nan nan nan nan nan nan nan nan nan nan nan nan nan nan nan nan nan nan nan nan nan nan nan nan nan nan nan nan nan nan nan nan nan nan nan nan
3 3 3 3 2 2 1 0 nan nan nan nan nan nan nan nan nan nan nan nan nan nan nan nan nan nan nan nan nan nan nan nan nan nan nan nan nan nan nan nan nan nan nan nan nan nan nan nan nan nan nan nan nan nan nan nan nan nan nan nan nan nan nan nan nan nan nan nan nan
3 1 1 0 nan nan nan nan nan nan nan nan nan nan nan nan nan nan nan nan nan nan nan nan nan nan nan nan nan nan nan nan nan nan nan nan nan nan nan nan nan nan nan nan nan nan nan nan nan nan nan nan nan nan nan nan nan nan nan nan nan nan nan nan nan nan nan nan nan
1 0 0 0 nan nan nan nan nan nan nan nan nan nan nan nan nan nan nan nan nan nan nan nan nan nan nan nan nan nan nan nan nan nan nan nan nan nan nan nan nan nan nan nan nan nan nan nan nan nan nan nan nan nan nan nan nan nan nan nan nan nan nan nan nan nan nan nan nan
nan 0 0 0 0 0 nan nan nan nan nan nan nan nan nan nan nan nan nan nan nan nan nan nan nan nan nan nan nan nan nan nan nan nan nan nan nan nan nan nan nan nan nan nan nan nan nan nan nan nan nan nan nan nan nan nan nan nan nan nan nan nan nan nan nan nan nan nan nan
0 0 0 0 1 1 nan nan nan nan nan nan nan nan nan nan nan nan nan nan nan nan nan nan nan nan nan nan nan nan nan nan nan nan nan nan nan nan nan nan nan nan nan nan nan nan nan nan nan nan nan nan nan nan nan nan nan nan nan nan nan nan nan nan nan nan nan nan nan
0 0 0 nan 0 0 nan nan nan nan nan nan nan nan nan nan nan nan nan nan nan nan nan nan nan nan nan nan nan nan nan nan nan nan nan nan nan nan nan nan nan nan nan nan nan nan nan nan nan nan nan nan nan nan nan nan nan nan nan nan nan nan nan nan nan nan nan nan nan
0 nan nan nan nan nan nan nan nan nan nan nan nan nan nan nan nan nan nan nan nan nan nan nan nan nan nan nan nan nan nan nan nan nan nan nan nan nan nan nan nan nan nan nan nan nan nan nan nan nan nan nan nan nan nan nan nan nan nan nan nan nan nan nan nan nan nan nan nan
0 nan nan nan nan nan nan nan nan nan nan nan nan nan nan nan nan nan nan nan nan nan nan nan nan nan nan nan nan nan nan nan nan nan nan nan nan nan nan nan nan nan nan nan nan nan nan nan nan nan nan nan nan nan nan nan nan nan nan nan nan nan nan nan nan nan nan nan nan
0 nan nan nan nan nan nan nan nan nan nan nan nan nan nan nan nan nan nan nan nan nan nan nan nan nan nan nan nan nan nan nan nan nan nan nan nan nan nan nan nan nan nan nan nan nan nan nan nan nan nan nan nan nan nan nan nan nan nan nan nan nan nan nan nan nan nan nan nan
nan nan nan nan nan nan nan nan nan nan nan nan nan nan nan nan nan nan nan nan nan nan nan nan nan nan nan nan nan nan nan nan nan nan nan nan nan nan nan nan nan nan nan nan nan nan nan nan nan nan nan nan nan nan nan nan nan nan nan nan nan nan nan nan nan nan nan nan nan
nan nan nan nan nan nan nan nan nan nan nan nan nan nan nan nan nan nan nan nan nan nan nan nan nan nan nan nan nan nan nan nan nan nan nan nan nan nan nan nan nan nan nan nan nan nan nan nan nan nan nan nan nan nan nan nan nan nan nan nan nan nan nan nan nan nan nan nan nan
nan nan nan nan nan nan nan nan nan nan nan nan nan nan nan nan nan nan nan nan nan nan nan nan nan nan nan nan nan nan nan nan nan nan nan nan nan nan nan nan nan nan nan nan nan nan nan nan nan nan nan nan nan nan nan nan nan nan nan nan nan nan nan nan nan nan nan nan nan
nan nan nan nan nan nan nan nan nan nan nan nan nan nan nan nan nan nan nan nan nan nan nan nan nan nan nan nan nan nan nan nan nan nan nan nan nan nan nan nan nan nan nan nan nan nan nan nan nan nan nan nan nan nan nan nan nan nan nan nan nan nan nan nan nan nan nan nan nan
nan nan nan nan nan nan nan nan nan nan nan nan nan nan nan nan nan nan nan nan nan nan nan nan nan nan nan nan nan nan nan nan nan nan nan nan nan nan nan nan nan nan nan nan nan nan nan nan nan nan nan nan nan nan nan nan nan nan nan nan nan nan nan nan nan nan nan nan nan
nan nan nan nan nan nan nan nan nan nan nan nan nan nan nan nan nan nan nan nan nan nan nan nan nan nan nan nan nan nan nan nan nan nan nan nan nan nan nan nan nan nan nan nan nan nan nan nan nan nan nan nan nan nan nan nan nan nan nan nan nan nan nan nan nan nan nan nan nan
nan nan nan nan nan nan nan nan nan nan nan nan nan nan nan nan nan nan nan nan nan nan nan nan nan nan nan nan nan nan nan nan nan nan nan nan nan nan nan nan nan nan nan nan nan nan nan nan nan nan nan nan nan nan nan nan nan nan nan nan nan nan nan nan nan nan nan nan nan
nan nan nan nan nan nan nan nan nan nan nan nan nan nan nan nan nan nan nan nan nan nan nan nan nan nan nan nan nan nan nan nan nan nan nan nan nan nan nan nan nan nan nan nan nan nan nan nan nan nan nan nan nan nan nan nan nan nan nan nan 0 nan nan nan nan nan nan nan nan
nan nan nan nan nan nan nan 0 0 0 nan nan nan nan nan nan nan nan nan nan nan nan nan nan nan nan nan nan nan nan nan nan nan nan nan nan nan nan nan nan nan nan nan nan nan nan nan nan nan nan nan nan nan nan nan nan nan nan nan nan 1 0 0 nan nan nan nan nan nan
nan nan nan nan 9 9 23 26 25 25 16 3 nan nan nan nan nan nan nan nan nan nan nan nan nan 12 12 nan nan nan nan nan nan nan nan nan nan nan nan nan nan nan nan nan nan nan nan nan nan nan nan nan nan nan nan nan nan nan nan nan nan nan nan nan nan nan nan nan nan
nan nan nan 3 15 15 33 30 58 58 47 39 21 8 8 nan nan nan nan nan nan nan nan nan nan nan nan nan nan nan nan nan nan nan nan nan nan nan nan nan nan nan nan nan nan nan nan nan nan nan nan nan nan nan nan nan nan nan nan nan nan nan nan nan nan nan nan nan nan
0 5 5 18 15 15 14 21 28 28 41 48 54 42 42 28 9 3 3 3 3 9 9 1 nan nan nan nan nan nan nan nan nan nan nan nan nan nan nan nan nan nan nan nan nan nan nan nan nan nan nan nan nan 0 0 0 0 0 0 nan 0 nan nan nan nan nan nan nan nan
1 6 6 14 8 8 nan 2 12 12 29 40 62 104 104 144 67 23 23 12 18 17 17 2 nan nan nan nan nan nan nan nan nan nan nan nan nan nan nan nan nan nan nan nan nan nan nan nan nan nan nan nan 1 1 1 1 nan nan nan nan nan nan nan nan nan nan nan nan nan
1 3 3 0 nan nan nan nan nan nan 3 9 26 121 121 192 84 24 24 12 31 36 36 27 0 nan nan nan nan nan nan nan nan nan nan nan nan nan nan nan nan nan nan nan nan nan nan nan nan nan nan nan nan 1 1 0 nan nan nan nan nan nan nan nan nan nan nan nan 0
8 8 8 nan nan nan nan nan nan nan nan 3 12 52 52 87 84 31 31 22 41 59 59 88 33 5 5 nan 1 1 0 nan nan nan nan nan nan nan nan nan nan nan nan nan nan nan nan nan nan nan nan nan nan 0 0 nan nan nan nan nan nan nan nan nan nan nan nan 1 2
5 7 7 5 nan nan nan nan 0 0 0 1 8 15 15 41 57 43 43 51 83 29 29 82 20 3 3 nan nan nan nan nan nan 0 0 nan nan nan nan nan nan nan nan nan nan nan nan nan nan nan nan nan nan nan nan nan nan nan nan nan nan 0 0 nan 1 1 0 3 4
nan 1 1 7 3 3 nan 5 10 10 2 2 4 12 12 25 56 82 82 116 166 65 65 48 nan nan nan nan nan nan nan nan nan 0 0 nan nan nan nan nan nan nan nan nan nan nan nan nan nan nan nan nan nan nan nan nan nan nan nan nan 0 1 1 1 3 3 5 9 6
0 28 28 44 19 19 12 39 35 35 8 7 9 22 22 34 113 297 297 196 87 39 39 nan nan nan nan nan nan nan nan nan nan nan nan nan nan nan nan nan nan nan nan nan nan nan nan nan nan nan nan nan nan nan nan nan nan nan nan nan 0 3 3 4 6 6 8 9 9
1 61 61 87 12 12 18 57 79 79 82 14 nan 39 39 136 209 80 80 9 nan nan nan nan nan nan nan nan nan nan nan nan nan nan nan nan nan nan nan nan nan nan nan nan nan nan nan nan nan nan nan nan nan nan nan nan nan 0 0 1 3 8 8 11 12 12 12 10 9
3 16 16 40 14 14 13 69 183 183 143 4 nan 10 10 42 5 nan nan nan nan nan nan nan nan nan nan nan nan nan nan nan nan nan nan nan nan nan nan nan nan nan nan nan nan nan nan nan nan nan nan nan nan nan nan nan nan 0 0 3 7 6 6 1 nan nan nan nan nan
22 12 12 28 12 12 9 145 268 268 1 nan nan nan nan nan nan nan nan nan nan nan nan nan nan nan nan nan nan nan nan nan nan nan nan nan nan nan nan nan nan nan nan nan nan nan nan nan nan nan nan nan nan nan nan nan 0 2 2 4 0 0 0 nan nan nan nan nan nan
42 45 45 11 8 8 27 125 199 199 nan nan nan 0 0 0 0 nan nan nan nan nan nan nan nan nan nan nan nan nan nan nan nan nan nan nan nan nan nan nan 0 nan nan nan nan nan nan nan nan nan nan nan nan 0 0 0 0 0 0 0 0 0 0 nan nan nan nan nan nan
308 267 267 91 10 10 98 133 44 44 nan 0 0 0 0 1 2 nan nan nan nan 0 0 0 0 nan nan nan nan nan nan nan nan nan nan nan nan 0 0 0 1 nan nan nan nan nan nan nan nan nan nan nan nan 0 0 0 0 0 0 0 1 0 0 0 0 0 nan nan nan
268 95 95 13 nan nan 3 nan nan nan nan 1 1 0 0 1 2 nan nan nan nan nan nan nan nan nan nan nan nan nan nan nan nan nan nan nan nan nan nan 1 nan nan nan nan nan nan nan nan nan nan nan nan 0 0 0 0 0 0 0 0 1 1 1 1 1 1 2 0 0
67 18 18 nan nan nan nan nan nan nan 0 1 0 nan nan 0 0 nan nan nan nan nan nan nan nan nan nan nan nan nan nan 0 0 nan nan nan nan nan nan nan 1 nan nan nan nan nan nan nan nan nan nan nan 0 nan nan nan 0 0 0 1 1 1 1 2 3 3 3 2 1
136 nan nan nan nan nan nan nan nan nan nan nan nan 0 0 nan nan nan nan 0 nan nan nan nan 1 nan nan nan nan nan 0 0 1 nan nan nan nan nan nan nan 1 0 0 nan nan nan nan nan nan nan nan nan 0 nan nan nan 0 0 0 1 2 1 1 1 1 1 2 2 2